EW1039 Weather Reports


time (UTC)temp
C
wind
direction
speed
KPH
gust
KPH
rain 1hr
cm
rain 24hr
cm
rain mn
cm
humidity
%
barometer
mb
20260505190024 8 321 0.0 9.7 0.00 0.00 0.00 37 1011.2
20260505184522 8 302 1.6 14.5 0.00 0.00 0.00 36 1011.0
20260505183031 8 282 0.0 14.5 0.00 0.00 0.00 35 1010.9
20260505181520 9 319 3.2 19.3 0.00 0.00 0.00 33 1010.7
20260505180021 9 322 1.6 8.0 0.00 0.00 0.00 33 1010.6
20260505174519 9 321 1.6 14.5 0.00 0.00 0.00 31 1010.7
20260505173017 9 319 0.0 9.7 0.00 0.00 0.00 30 1010.5
20260505171517 10 306 0.0 14.5 0.00 0.00 0.00 28 1010.5
20260505170017 10 338 4.8 17.7 0.00 0.00 0.00 27 1010.4
20260505164516 11 300 3.2 19.3 0.00 0.00 0.00 25 1010.4
20260505163015 11 268 6.4 14.5 0.00 0.00 0.00 23 1010.4
20260505161514 11 261 4.8 24.1 0.00 0.00 0.00 23 1010.4
20260505153013 12 246 8.0 24.1 0.00 0.00 0.00 21 1010.3
20260505151512 12 302 6.4 22.5 0.00 0.00 0.00 22 1010.2
20260505124503 12 296 1.6 25.7 0.00 0.00 0.00 25 1010.1
20260505123000 12 287 4.8 35.4 0.00 0.00 0.00 25 1010.2
20260505121559 11 320 0.0 20.9 0.00 0.00 0.00 23 1010.1
20260505120106 11 215 12.9 27.4 0.00 0.00 0.00 23 1009.9
20260505114557 11 234 12.9 20.9 0.00 0.00 0.00 26 1010.0
20260505113112 11 261 1.6 16.1 0.00 0.00 0.00 24 1010.1
20260505111553 11 287 6.4 16.1 0.00 0.00 0.00 25 1010.2
20260505101546 10 209 6.4 20.9 0.00 0.00 0.00 28 1010.6
20260505100044 9 210 0.0 19.3 0.00 0.00 0.00 30 1010.5
20260505094545 9 184 0.0 22.5 0.00 0.00 0.00 30 1010.5
20260505093043 9 298 1.6 14.5 0.00 0.00 0.00 31 1010.6
20260505091538 8 324 0.0 9.7 0.00 0.00 0.00 33 1010.6
20260505090035 8 256 0.0 14.5 0.00 0.00 0.00 33 1010.6
20260505084543 8 300 0.0 12.9 0.00 0.00 0.00 34 1010.7
20260505083031 7 316 0.0 17.7 0.00 0.00 0.00 36 1010.7
20260505081528 8 345 0.0 16.1 0.00 0.00 0.00 37 1010.6
20260505080027 7 339 0.0 12.9 0.00 0.00 0.00 39 1010.8
20260505074520 7 347 1.6 9.7 0.00 0.00 0.00 40 1010.9
20260505073016 6 17 1.6 9.7 0.00 0.00 0.00 45 1010.8
20260505071513 5 25 0.0 1.6 0.00 0.00 0.00 46 1010.7
20260505070012 5 6 0.0 1.6 0.00 0.00 0.00 47 1010.8
20260505064511 5 292 4.8 16.1 0.00 0.00 0.00 46 1010.8
20260505063010 5 265 0.0 9.7 0.00 0.00 0.00 48 1010.8
20260505061515 3 215 0.0 9.7 0.00 0.00 0.00 54 1010.8
20260505060011 3 205 0.0 0.0 0.00 0.00 0.00 60 1010.9
20260505054508 2 211 0.0 0.0 0.00 0.00 0.00 62 1010.9
20260505053007 1 209 0.0 0.0 0.00 0.00 0.00 66 1010.9
20260505051508 1 207 0.0 0.0 0.00 0.00 0.00 67 1010.8
20260505041600 0 278 0.0 0.0 0.00 0.00 0.00 71 1010.4
20260505040058 0 275 0.0 0.0 0.00 0.00 0.00 71 1010.3
20260505034616 -1 220 0.0 0.0 0.00 0.00 0.00 72 1010.2
20260505033056 -1 220 0.0 0.0 0.00 0.00 0.00 71 1010.1
20260505031555 -1 220 0.0 0.0 0.00 0.00 0.00 71 1010.1
20260505030051 0 220 0.0 0.0 0.00 0.00 0.00 69 1010.0
20260505024547 0 220 0.0 0.0 0.00 0.00 0.00 67 1009.9
20260505023048 0 220 0.0 0.0 0.00 0.00 0.00 66 1009.9
20260505021543 0 225 0.0 0.0 0.00 0.00 0.00 67 1009.9
20260505020040 0 225 0.0 0.0 0.00 0.00 0.00 64 1009.6
20260505014537 1 225 0.0 0.0 0.00 0.00 0.00 59 1009.6
20260505013033 2 202 0.0 0.0 0.00 0.00 0.00 54 1009.4
20260505011552 3 215 4.8 12.9 0.00 0.00 0.00 50 1009.2
20260505010029 3 289 3.2 16.1 0.00 0.00 0.00 49 1009.1
20260505004528 3 337 0.0 6.4 0.00 0.00 0.00 52 1009.1
20260505003026 2 296 0.0 0.0 0.00 0.00 0.00 56 1009.0
20260505001524 2 149 0.0 0.0 0.00 0.00 0.00 60 1009.1
20260505000031 2 200 0.0 0.0 0.00 0.00 0.00 60 1008.9
20260504234519 3 348 0.0 0.0 0.00 0.00 0.00 58 1008.9
20260504233016 3 234 0.0 16.1 0.00 0.00 0.00 54 1008.6
20260504231515 3 234 4.8 12.9 0.00 0.00 0.00 53 1008.6
20260504230011 4 222 0.0 9.7 0.00 0.00 0.00 51 1008.6
20260504224512 5 265 3.2 17.7 0.00 0.00 0.00 50 1008.5
20260504223004 5 265 9.7 16.1 0.00 0.00 0.00 49 1008.3
20260504221600 5 273 3.2 19.3 0.00 0.00 0.00 47 1008.2
20260504220056 6 238 9.7 19.3 0.00 0.00 0.00 46 1007.9
20260504214600 6 261 6.4 22.5 0.00 0.00 0.00 46 1007.7
20260504213053 6 261 11.3 27.4 0.00 0.00 0.00 45 1007.4
20260504211551 6 278 11.3 29.0 0.00 0.00 0.00 45 1007.3
20260504210049 6 267 6.4 29.0 0.00 0.00 0.00 47 1007.1
20260504204548 7 299 6.4 19.3 0.00 0.00 0.00 52 1007.0
20260504203050 7 298 8.0 19.3 0.00 0.00 0.00 51 1006.8
20260504201545 7 256 6.4 20.9 0.00 0.00 0.00 51 1006.6
20260504200042 7 292 3.2 14.5 0.00 0.00 0.00 51 1006.3
20260504194547 8 302 3.2 14.5 0.00 0.00 0.00 51 1005.9
20260504193042 8 327 6.4 16.1 0.00 0.00 0.00 51 1005.6
20260504191549 8 256 1.6 32.2 0.00 0.00 0.00 59 1005.2